Regional Weather Roundup
Issued by NWS Jackson, KY

Home | Current Version | Previous Version | Text Only | Print | Product List | Glossary Off
Versions: 1 2 3 4 5 6 7 8 9 10 11 12 13 14 15 16 17 18 19 20 21 22 23 24 25 26 27 28 29 30 31 32 33 34 35 36 37 38 39 40 41 42 43 44 45 46 47 48 49 50

000
ASUS43 KJKL 161710
RWRJKL

EAST KENTUCKY HOURLY WEATHER ROUNDUP
NATIONAL WEATHER SERVICE JACKSON KY
1200 PM EST MON JAN 16 2017

NOTE: "FAIR" INDICATES FEW OR NO CLOUDS BELOW 12,000 FEET WITH
NO SIGNIFICANT WEATHER AND/OR OBSTRUCTIONS TO VISIBILITY.

* THESE REPORTS ARE NOT UNDER NWS QUALITY CONTROL AND MAY NOT
  REPORT WEATHER SUCH AS PRECIPITATION AND FOG.

KYZ079-080-083-085-087-088-110-112-115-119-120-161800
...EASTERN KENTUCKY...

CITY           SKY/WX    TMP DP  RH WIND       PRES   REMARKS
JACKSON        SUNNY     55  50  83 CALM      30.27F
LONDON         CLOUDY    56  52  86 CALM      30.27F
SOMERSET*      CLOUDY    54  52  94 S5        30.28F
MONTICELLO*    CLOUDY    60  54  80 VRB6      30.28F
WILLIAMSBURG*  CLOUDY    57  57 100 SE5       30.28F
MIDDLESBORO*   CLOUDY    59  56  89 CALM      30.30F
HARLAN APT*    MOSUNNY   63  54  72 CALM      30.30F
PIKE CO APT*   CLOUDY    51  51 100 CALM      30.28F
BIG SANDY APT* CLOUDY    50  50 100 CALM      30.28F
MOREHEAD APT*  CLOUDY    48  46  93 CALM      30.29F
ASHLAND*       CLOUDY    46  43  87 CALM      30.28F
$$

KYZ035-036-041-042-044-050-067-078-099-161800
...CENTRAL KENTUCKY...

CITY           SKY/WX    TMP DP  RH WIND       PRES   REMARKS
MT STERLING*   CLOUDY    52  48  87 S6        30.27F
FLEMING/MASON* MOSUNNY   49  46  90 S6        30.27F
DANVILLE*      CLOUDY    50  50 100 SW5       30.26F
LEXINGTON      CLOUDY    51  48  89 S5        30.25F
FRANKFORT      CLOUDY    51  46  83 SE3       30.24F
LOUISVILLE     CLOUDY    51  46  83 SE5       30.23F
LEBANON*         N/A     57  54  88 S5        30.24F
GLASGOW*       MOSUNNY   62  54  74 S7        30.23F
BOWLING GREEN  CLOUDY    59  54  83 S6        30.23F
$$

KYZ091>093-OHZ055-061-077-WVZ005-015-034-035-042-161800
...SOUTHERN OHIO/WEST VIRGINIA...

CITY           SKY/WX    TMP DP  RH WIND       PRES   REMARKS
COVINGTON      CLOUDY    44  43  96 SE3       30.25F FOG
COLUMBUS       CLOUDY    42  37  82 S6        30.28F
DAYTON         CLOUDY    42  40  92 SE7       30.26F FOG
WILMINGTON     CLOUDY    43  42  97 SE6       30.26F
HUNTINGTON     CLOUDY    46  43  89 CALM      30.28F FOG
CHARLESTON     CLOUDY    48  44  86 CALM      30.28F
BECKLEY        CLOUDY    54  50  86 SE6       30.30F
BLUEFIELD      PTSUNNY   57  49  74 VRB3      30.32F
LOGAN CO APT*    N/A     55  54  94 CALM      30.28F
$$

VAZ002-007-008-TNZ017-027-036-066-071-161800
...SOUTHWEST VIRGINIA/EAST TENNESSEE...

CITY           SKY/WX    TMP DP  RH WIND       PRES   REMARKS
WISE*          PTSUNNY   59  57  94 S5        30.31F
JONESVILLE*    CLOUDY    59  55  88 CALM      30.32F
ABINGDON*      PTSUNNY   62  55  77 W6        30.31F
BRISTOL        MOSUNNY   63  54  72 CALM      30.30F
MORRISTOWN*    CLOUDY    55  55 100 CALM      30.30F
SEVIERVILLE*   CLOUDY    55  55 100 CALM      30.30F
KNOXVILLE      CLOUDY    59  54  83 CALM      30.30F
LAFOLLETTE*    CLOUDY    55  55 100 CALM      30.33F
OAK RIDGE      CLOUDY    59  53  80 CALM      30.32F
CROSSVILLE     CLOUDY    58  50  75 S5        30.30F
NASHVILLE      CLOUDY    64  52  64 S7        30.23F
$$

...KEY TO REMARKS...
VSB - VISIBILITY IN MILES
WCI - WIND CHILL INDEX
HX  - HEAT INDEX

$$



USA.gov is the U.S. government's official web portal to all federal, state and local government web resources and services.